This demonstration page uses our WeatherBlox Daily Observations layout. Learn more.

Left ArrowRight Arrow

30.21309, -93.2044

Hourly Observations for March 28, 2015

Temp ( °F °C ) Dew Point ( °F °C ) Humidity (%) Winds ( mph kmh ) Pressure ( in mb ) Visibility ( mi km ) Precip ( " mm )
12:15 am 00:15 Clear 57 14 42 5.7 58 58 Calm 30.18 1022 10 16 0.00 0.00
12:35 am 00:35 Clear 58 14.2 41 5 54 54 Calm 30.18 1022 10 16 0.00 0.00
12:55 am 00:55 Clear 53 11.7 44 6.7 72 72 Calm 30.18 1022 10 16 0.00 0.00
1:15 am 01:15 Clear 50 10 44 6.8 81 81 Calm 30.18 1022 10 16 0.00 0.00
1:35 am 01:35 Clear 53 11.9 43 5.9 67 67 ENE 5 7 30.18 1022 10 16 0.00 0.00
1:55 am 01:55 Clear 53 11.8 42 5.3 65 65 ENE 3 6 30.18 1022 10 16 0.00 0.00
2:15 am 02:15 Clear 53 11.7 41 5 64 64 Calm 30.18 1022 10 16 0.00 0.00
2:35 am 02:35 Clear 52 11.1 41 5.1 67 67 Calm 30.18 1022 10 16 0.00 0.00
2:55 am 02:55 Clear 49 9.7 45 7 83 83 Calm 30.15 1021 10 16 0.00 0.00
3:15 am 03:15 Clear 49 9.4 44 6.4 82 82 Calm 30.15 1021 10 16 0.00 0.00
3:35 am 03:35 Clear 49 9.5 44 6.4 81 81 Calm 30.15 1021 10 16 0.00 0.00
3:55 am 03:55 Clear 51 10.3 44 6.6 78 78 Calm 30.15 1021 10 16 0.00 0.00
4:15 am 04:15 Clear 48 8.8 44 6.6 86 86 Calm 30.15 1021 10 16 0.00 0.00
4:35 am 04:35 Clear 50 9.8 43 6.3 79 79 Calm 30.15 1021 10 16 0.00 0.00
4:55 am 04:55 Clear 49 9.4 44 6.5 82 82 Calm 30.15 1021 10 16 0.00 0.00
5:15 am 05:15 Clear 49 9.3 44 6.5 83 83 ENE 3 6 30.15 1021 10 16 0.00 0.00
6:00 am 06:00 Mostly Clear 46 8 45 7 93 93 Calm 30.18 1022 10 16 0.00 0.00
6:55 am 06:55 Mostly Clear 46 8 45 7 93 93 Calm 30.18 1022 10 16 0.00 0.00
8:55 am 08:55 Mostly Sunny 52 11 46 8 82 82 ESE 8 13 30.21 1023 10 16 0.00 0.00
9:55 am 09:55 Mostly Sunny 61 16 48 9 63 63 ESE 8 13 30.21 1023 10 16 0.00 0.00
10:55 am 10:55 Mostly Sunny 64 18 50 10 60 60 ESE 12 19 30.21 1023 10 16 0.00 0.00
11:45 am 11:45 Mostly Sunny 66 19 52 11 60 60 SSE 12 19 30.21 1023 10 16 0.00 0.00
12:45 pm 12:45 Mostly Sunny 70 21 52 11 53 53 SSW 7 11 30.18 1022 10 16 0.00 0.00
1:45 pm 13:45 Mostly Sunny 72 22 52 11 50 50 S 8 13 30.18 1022 10 16 0.00 0.00
2:45 pm 14:45 Mostly Sunny 73 23 52 11 47 47 S 9 15 30.15 1021 10 16 0.00 0.00
5:45 pm 17:45 Mostly Sunny 72 22 55 13 57 57 S 14 22 N/A 2 3 0.00 0.00
6:45 pm 18:45 Mostly Sunny 70 21 55 13 60 60 S 10 17 N/A 2 3 0.00 0.00
7:45 pm 19:45 Mostly Clear 63 17 55 13 77 77 S 6 9 N/A 2 3 0.00 0.00
8:45 pm 20:45 Mostly Clear 63 17 55 13 77 77 S 8 13 N/A 2 3 0.00 0.00
9:45 pm 21:45 Mostly Clear 61 16 57 14 88 88 S 6 9 N/A 2 3 0.00 0.00
10:15 pm 22:15 Clear 57 13.8 55 13 95 95 S 5 7 30.15 1021 10 16 0.00 0.00
10:35 pm 22:35 Clear 59 15.1 58 14.2 94 94 S 5 7 30.15 1021 10 16 0.00 0.00
10:55 pm 22:55 Clear 57 14.1 56 13.4 96 96 S 3 6 30.18 1022 10 16 0.00 0.00
11:15 pm 23:15 Clear 58 14.5 57 14.1 97 97 SSE 3 6 30.18 1022 10 16 0.00 0.00
11:35 pm 23:35 Clear 58 14.2 57 13.7 97 97 Calm 30.18 1022 10 16 0.00 0.00
11:55 pm 23:55 Clear 58 14.4 57 14 97 97 E 3 6 30.18 1022 10 16 0.00 0.00

Powered by AerisWeather